Location: Freistadt
(48.5112°N, 14.5013°E)
Time: 21:15:24
(UTC+02:00)

O/OREOS (USA 219) - Pass Details

Date: 02 April 2023
Orbit: 621 x 646 km, 72.0° (Epoch: 22 May)

Event Time Altitude Azimuth Distance (km) Brightness Sun altitude
Exits shadow 04:35:06 - 165° (SSE) 2,367 ? -19.9°
Reaches altitude 10° 04:36:06 10° 158° (SSE) 2,031 ? -19.8°
Maximum altitude 04:39:49 25° 104° (ESE) 1,295 ? -19.3°
Drops below altitude 10° 04:43:32 10° 49° (NE) 2,033 ? -18.7°
Sets 04:46:06 0° 37° (NE) 2,942 ? -18.4°
